Vorticity
5 30 16 2 10 14 8 7 5 4 -3 2 8 2 8 9 4 2 2 -4 11 -1
-5 14 6 -5 8 15 10 6 8 4 5 -4 0 0 -2 -4 10 6 6 -4 15 4
15 -5 23 -2 5 1 15 5 11 -2 9 0 -6 9 -2 -12 -8 2 10 -2 20 5
-2 19 -6 28 7 21 15 15 18 17 4 18 12 4 4 11 16 2 4 14 -4 -5
15 34 -23 17 -2 14 26 14 16 -4 -17 -4 -7 11 18 -4 12 15 -3 6 33 5
-9 24 32 -17 16 -1 20 6 33 -3 15 4 23 -6 7 17 5 -11 22 16 2 7
47 21 8 26 17 -13 7 6 8 12 2 4 9 15 4 28 -7 2 13 4 17 14
27 29 31 29 32 30 7 23 14 19 -4 13 -0 3 17 4 5 7 11 11 18 4
12 12 16 16 31 24 27 31 30 14 16 17 12 9 8 14 9 9 13 9 2 8
11 8 9 8 8 4 8 11 13 9 8 7 4 2 2 0 2 7 8 5 8 6
17 14 11 10 10 10 10 13 13 13 12 12 13 15 17 16 16 15 16 18 16 24
15 15 16 13 12 11 14 11 11 16 18 16 16 18 17 18 21 24 23 21 20 18
13 13 14 16 16 13 11 11 10 10 10 11 11 14 17 18 19 20 16 10 8 6
10 12 14 14 15 13 12 12 11 11 10 10 8 6 8 8 9 9 9 10 8 7
Height
2981 2985 2993 2998 3006 3012 3019 3025 3029 3034 3039 3043 3048 3052 3056 3061 3066 3070 3074 3079 3082 3086
2969 2977 2982 2990 2997 3003 3010 3016 3022 3027 3032 3036 3041 3045 3050 3055 3060 3064 3069 3073 3076 3080
2958 2967 2970 2975 2986 2992 3000 3007 3012 3018 3023 3028 3033 3038 3043 3048 3052 3057 3061 3066 3069 3073
2950 2957 2963 2967 2974 2981 2991 2997 3001 3008 3013 3019 3025 3029 3034 3039 3044 3049 3053 3058 3061 3065
2940 2946 2952 2957 2964 2969 2978 2985 2991 2998 3004 3007 3014 3020 3025 3030 3035 3039 3044 3049 3052 3057
2928 2934 2939 2947 2951 2957 2966 2973 2981 2987 2993 3000 3004 3009 3016 3022 3026 3031 3036 3040 3044 3048
2916 2922 2930 2935 2940 2946 2953 2962 2969 2977 2984 2991 2996 3001 3007 3012 3017 3021 3026 3030 3034 3038
2911 2914 2920 2926 2929 2935 2944 2950 2955 2966 2974 2980 2986 2991 2997 3002 3007 3012 3016 3020 3024 3028
2916 2914 2921 2919 2922 2928 2935 2941 2946 2954 2961 2968 2975 2981 2987 2992 2997 3002 3006 3011 3015 3019
2911 2915 2914 2920 2921 2927 2934 2937 2941 2948 2955 2963 2967 2973 2978 2983 2988 2993 2998 3002 3007 3011
2909 2911 2914 2917 2920 2927 2931 2931 2936 2943 2950 2956 2960 2965 2970 2975 2980 2984 2989 2993 2998 3002
2908 2910 2913 2916 2918 2923 2925 2930 2934 2939 2946 2950 2954 2959 2964 2969 2974 2978 2982 2987 2992 2996
2909 2910 2912 2914 2916 2918 2921 2926 2930 2937 2942 2946 2950 2955 2960 2965 2970 2974 2979 2983 2988 2993
2909 2909 2913 2914 2916 2919 2921 2924 2929 2934 2937 2941 2945 2950 2956 2961 2966 2970 2975 2979 2983 2987